ニート-パンスターズ彗星

P/2024 N6 ( NEAT-PanSTARRS )

English version
Home page
Updated on September 16, 2024

---------------------------------------------------------------------

・ プロフィール

符号 P/2024 N6
再発見日 2024年7月9日
再発見光度 20.6等
再発見者 Pan-STARRS 2 telescope (Haleakala)

・ 写真集

・ 軌道要素

Epoch 2024 Oct. 17.0 TT = JDT 2460600.5                                         
T 2024 May 19.18509 TT                                  Rudenko                 
q   1.6778509            (2000.0)            P               Q                  
n   0.13666685     Peri.    1.46563     +0.82420118     +0.55437000             
a   3.7327358      Node   324.07174     -0.52155147     +0.66355165             
e   0.5505037      Incl.   11.36345     -0.22062746     +0.50236751             
P   7.21                                                                        
>From 69 observations 2002 July 6-2024 Aug. 2, mean residual 3".4.               

・ 光度変化

        m1 = 16.5 + 5 logΔ + 10.0 log r

---------------------------------------------------------------------

軌道要素はM.P.E.C. 2024-P41に掲載されたものです。
光度グラフはComet for Windowsで作成したものです。

---------------------------------------------------------------------

Copyright(C) Seiichi Yoshida (comet@aerith.net). All rights reserved.